OINE

Kalaleh Airport

Airport
ICAO code
OINE
IATA Code
KLM
Summary
ICAO Region
MID
ICAO Territory
Location

Barbar Qaleh, Golestan Province

Serving
Kalaleh
Elevation
425 ft
Coordinates
37° 22' 60" N , 55° 27' 5" E
KCC
Metar
OINE 160700Z 30004KT 9999 FEW030 BKN200 21/14 Q1020

Airport 4km west of the city of Kalaleh, Iran.

Climatology

Cold desert climate (Köppen climate classification Bwk).

Runways

Designator Length Width Surface Rops
10/28 2218 28 ASP No/No

Airport map

Aerial View

SKYbrary Partners:

Safety knowledge contributed by: